Temperature
18 18 18 18 18 18 18 18 18 18 18 18 18 18 18 18 18 18 18 18 18 18 18 18 17 17 17 17 17 17 17 17 17 17 17 16 16 16 16 16 16 16 16
18 18 18 18 18 18 18 18 18 18 18 18 18 18 18 18 18 18 18 18 18 18 17 17 17 17 17 17 17 17 17 17 17 17 17 16 16 16 16 16 16 16 16
18 18 18 18 18 18 18 18 18 18 18 18 18 18 18 18 18 18 18 18 18 18 17 17 17 17 17 17 17 17 17 17 17 17 16 16 16 16 16 16 16 16 16
18 18 18 18 18 18 18 18 18 18 18 18 18 18 18 18 18 18 18 18 18 18 18 18 18 17 17 17 17 17 17 17 17 17 16 16 16 16 16 16 16 16 16
18 18 18 18 18 18 18 18 18 18 18 18 18 18 18 18 18 18 18 18 18 18 18 18 18 17 17 17 17 17 17 17 17 17 17 16 16 16 16 16 16 16 16
18 18 18 18 18 18 18 18 18 18 18 18 18 18 18 18 18 18 18 18 18 18 18 18 18 17 17 17 17 17 17 17 17 16 16 16 16 16 16 16 16 16 16
18 18 18 18 18 18 18 18 18 18 18 18 18 18 18 18 18 18 18 18 18 17 17 17 17 17 17 17 17 17 17 17 16 16 16 16 16 16 16 16 16 16 15
18 18 18 18 18 18 18 18 18 18 18 18 18 18 17 18 18 18 18 18 18 17 17 17 17 17 17 17 17 17 17 17 16 16 16 16 16 16 16 15 15 15 15
18 18 18 18 18 18 18 18 18 18 18 17 17 17 17 17 17 17 17 17 17 17 17 17 17 17 17 17 17 17 17 17 16 16 16 16 16 16 15 15 15 15 15
18 18 18 18 18 18 18 18 18 17 17 18 17 17 17 17 17 17 17 17 17 17 17 17 17 17 17 17 17 17 17 16 16 16 16 16 16 16 15 15 15 15 15
18 18 18 18 18 18 18 18 18 18 18 17 17 17 17 17 17 17 16 17 17 17 17 17 17 17 17 17 17 17 17 16 16 16 16 16 16 16 15 15 15 15 15
19 18 18 18 18 18 18 18 18 18 18 17 17 17 17 17 17 17 17 17 17 17 17 17 17 17 17 17 17 16 16 16 16 16 16 16 16 16 15 15 15 15 15
19 19 18 18 18 18 18 18 18 18 17 17 17 17 17 17 17 17 17 16 16 16 16 17 16 16 16 16 16 16 16 16 16 16 16 16 16 15 15 15 15 15 15
19 19 18 18 18 18 18 18 18 18 17 17 17 17 17 17 17 17 17 16 16 16 16 16 16 16 16 16 16 16 16 16 16 16 16 16 15 15 15 15 15 15 15
18 18 18 18 18 18 18 18 18 18 17 17 17 17 17 17 17 17 16 16 16 15 16 16 16 16 16 16 16 16 16 16 16 15 15 15 15 15 15 15 15 15 15
18 18 18 18 18 18 18 18 18 18 17 17 17 17 17 17 17 16 16 16 16 16 15 16 16 16 16 16 15 15 15 15 15 15 15 15 15 15 15 15 15 15 15
18 18 18 18 18 18 18 17 17 17 17 17 17 17 17 17 16 16 16 16 16 16 16 16 15 15 15 15 15 15 15 15 15 15 15 15 15 14 14 14 14 14 14
18 18 18 18 18 17 17 17 17 17 17 17 16 16 16 16 16 16 16 16 16 15 15 15 15 15 15 15 15 15 15 15 15 15 14 14 14 14 14 14 14 14 14
18 18 18 18 17 17 17 17 17 16 16 16 16 16 16 16 16 16 15 15 15 15 15 15 15 15 15 14 14 15 14 15 14 14 14 14 14 14 14 14 14 14 14
18 18 18 17 17 17 17 17 16 16 16 16 16 16 15 15 15 15 15 15 15 15 15 14 14 14 14 14 14 14 14 14 14 14 14 14 14 14 14 13 13 13 13
18 18 17 17 17 17 17 17 16 16 16 16 16 15 15 15 15 15 15 15 15 14 14 14 14 14 14 14 14 14 14 14 14 14 14 13 13 13 13 13 13 13 13
18 17 17 17 17 17 16 16 16 16 16 15 15 15 15 15 15 15 14 14 14 14 14 14 14 14 14 14 13 13 13 13 13 13 13 13 13 13 13 13 13 13 13
17 17 17 17 17 17 16 16 16 16 15 15 15 15 15 15 14 14 14 14 14 14 14 14 14 14 14 14 13 13 13 13 13 13 13 13 13 13 13 13 12 12 12
17 17 17 17 17 16 16 16 15 15 15 15 15 15 15 14 14 14 14 14 14 14 14 14 13 14 13 13 13 13 13 13 13 13 12 12 12 12 12 12 12 12 12
17 17 17 16 16 16 16 15 15 15 15 15 15 14 14 14 14 14 14 14 14 14 14 14 13 13 13 13 13 13 13 13 13 13 12 12 12 12 12 12 12 12 12
16 16 16 16 16 16 16 15 15 15 15 15 14 14 14 14 14 14 13 13 13 14 14 13 13 13 13 13 13 13 13 12 12 12 12 12 12 11 11 12 11 11 11
Wind_Speed
3 3 2 2 1 2 2 1 1 1 2 1 2 4 4 5 5 5 6 8 9 10 10 10 10 10 10 9 9 9 9 9 9 9 9 10 9 9 9 9 10 11 11
3 3 2 2 2 2 2 2 2 1 1 1 1 2 3 4 4 4 5 6 8 9 10 10 10 10 10 10 9 9 9 9 9 9 10 9 9 9 9 9 9 9 11
4 3 2 2 1 1 2 2 2 1 1 1 1 1 1 3 4 4 4 4 5 7 8 9 10 10 10 10 10 10 9 9 9 9 10 9 9 9 9 10 10 10 10
4 3 3 2 1 1 1 2 2 2 2 1 1 1 1 1 2 3 4 4 4 5 6 8 9 9 9 10 10 10 10 9 9 9 9 9 9 9 9 10 10 10 10
4 3 2 1 2 2 1 1 2 1 1 1 1 1 1 0 1 2 2 3 5 5 5 7 8 9 9 9 10 9 9 9 9 8 7 7 8 9 8 8 8 9 9
3 3 1 1 2 2 2 2 1 1 1 0 1 2 2 1 0 1 2 2 3 5 6 6 5 7 9 9 9 8 9 9 9 8 8 8 8 7 7 7 8 8 9
2 2 2 1 2 2 1 1 1 2 1 1 2 2 3 2 1 1 1 1 2 3 4 5 5 5 5 8 9 10 10 10 9 9 9 8 8 8 8 8 8 8 8
2 2 2 2 1 1 1 1 1 1 0 1 1 1 2 4 3 2 1 0 1 1 2 3 5 5 4 5 6 8 9 9 9 9 9 9 9 9 9 8 8 8 8
2 2 2 2 1 2 1 1 1 2 1 2 1 3 2 2 3 3 2 1 1 0 1 1 3 5 5 5 5 8 10 10 10 10 10 9 10 10 9 9 9 9 8
2 2 2 2 2 1 1 1 1 1 2 1 1 0 2 3 1 2 3 2 2 1 2 2 2 3 5 5 6 7 9 10 11 11 10 10 9 9 10 10 10 10 10
1 2 2 2 2 1 1 1 1 1 1 1 1 0 0 1 1 2 2 3 3 2 2 2 2 3 4 5 5 7 8 9 10 10 10 9 8 8 8 9 9 10 10
1 1 1 2 2 2 2 1 1 1 1 1 1 1 1 1 1 2 2 2 2 3 3 2 2 2 3 4 6 8 9 10 10 10 9 8 7 7 8 8 8 9 9
1 2 1 1 1 2 2 1 1 1 0 0 1 1 1 2 2 2 2 1 2 2 2 2 2 2 2 4 6 8 8 9 9 9 8 7 7 7 7 7 8 8 9
2 2 1 1 1 1 1 1 1 1 0 0 0 0 0 1 1 2 2 2 1 2 2 3 3 2 2 3 5 6 6 8 9 9 8 8 7 7 7 7 8 7 8
1 1 1 1 1 1 1 1 1 1 0 0 1 0 0 1 1 1 2 3 3 1 3 3 2 3 2 3 4 4 5 6 7 8 8 8 7 7 7 8 8 8 8
1 2 2 1 1 1 1 1 1 0 0 1 1 1 1 1 1 0 1 1 2 3 3 3 3 3 3 2 3 4 5 5 5 6 7 7 7 7 7 8 8 8 8
2 2 2 1 1 1 1 1 1 1 1 1 1 1 2 1 1 1 1 1 1 2 3 3 2 2 2 2 2 3 4 4 4 6 7 7 7 7 7 7 8 8 8
2 2 1 1 2 1 1 2 2 1 1 2 2 1 2 1 1 1 1 2 2 2 3 3 2 2 2 3 2 2 3 4 4 5 6 8 7 6 6 7 7 7 7
2 1 2 2 2 2 2 2 2 2 2 2 2 2 2 1 2 2 2 2 2 2 1 2 3 2 2 2 2 3 3 2 3 4 6 7 7 7 7 7 7 7 6
2 2 2 2 3 2 2 2 2 2 2 2 2 2 2 2 3 2 2 2 2 2 1 1 2 2 2 2 1 1 2 2 2 2 3 4 5 6 7 7 7 6 6
3 3 3 3 3 3 2 2 2 3 3 3 2 3 3 3 3 3 2 2 2 2 1 1 2 2 2 1 2 2 2 2 2 2 2 2 2 2 4 5 6 6 7
3 2 3 3 3 3 3 4 3 3 3 3 4 4 4 3 3 3 3 3 3 3 3 2 2 3 3 3 2 2 2 1 2 2 1 3 1 3 3 4 5 6 6
2 2 3 3 3 4 4 4 4 3 4 4 4 4 4 3 2 2 3 3 3 4 5 5 4 5 4 4 3 2 2 3 4 3 1 3 2 3 4 4 6 7 7
3 3 3 3 3 4 4 4 4 3 3 3 4 4 4 4 3 3 3 3 4 5 5 4 5 6 6 5 4 4 4 3 3 2 1 2 2 3 3 4 6 7 8
2 2 2 3 3 4 3 3 3 2 3 4 4 4 4 4 5 4 2 3 4 5 5 4 5 5 6 6 4 1 1 1 3 3 2 2 2 2 2 3 5 6 7
3 2 2 3 3 4 4 3 3 2 3 3 3 4 5 5 6 4 3 3 5 6 4 4 3 3 3 4 4 4 4 3 2 3 3 2 2 1 2 2 2 3 4
Wind_Direction
110 115 122 135 135 128 125 118 111 100 124 164 170 157 154 162 171 179 187 185 184 185 186 186 191 196 201 201 205 209 211 216 217 215 218 219 219 216 218 226 230 227 226
118 112 98 104 108 129 148 137 116 113 139 144 123 139 155 166 174 171 184 193 190 190 194 195 196 201 205 204 208 214 217 218 218 220 218 218 220 223 224 230 233 232 232
128 121 103 92 89 125 120 103 86 74 85 83 79 103 144 162 170 181 190 189 194 196 197 197 199 203 208 212 215 219 222 220 220 220 220 220 223 228 231 234 236 234 232
132 121 107 113 136 119 90 96 87 67 46 46 33 8 106 150 166 178 188 192 196 204 205 205 203 208 212 215 219 221 223 221 221 223 224 223 225 229 234 235 235 234 233
118 120 115 124 117 88 72 92 81 101 82 24 353 352 344 93 189 191 191 196 198 200 206 215 215 214 215 219 221 221 218 213 213 215 219 223 227 231 233 231 231 230 234
123 122 122 98 101 88 68 72 81 77 108 35 17 6 341 301 278 212 219 211 205 203 207 215 222 229 224 219 217 215 212 210 212 217 224 226 227 228 228 227 227 229 232
129 120 106 89 103 110 119 107 99 72 38 60 52 5 353 345 338 276 239 217 219 206 206 211 213 224 229 224 220 217 215 214 215 219 224 228 229 229 228 228 229 229 231
160 138 134 123 123 113 68 85 113 88 324 88 119 67 1 350 353 344 353 169 233 204 203 209 202 211 218 217 219 221 223 223 225 226 229 230 231 230 230 231 231 232 233
164 159 148 147 150 151 179 203 161 150 223 290 143 138 147 247 314 330 344 13 2 308 265 228 208 210 212 214 214 224 226 229 232 235 236 235 236 234 233 234 234 233 233
175 162 168 161 161 151 175 227 170 165 159 264 309 208 179 171 168 310 325 331 320 293 272 265 235 218 213 209 210 217 225 231 234 239 241 241 238 236 236 237 240 240 237
207 190 171 159 154 153 165 145 117 128 153 177 213 253 56 89 140 171 279 314 328 300 274 249 242 225 221 219 215 219 225 230 233 239 244 242 238 238 240 240 243 244 242
243 226 170 172 178 164 166 156 141 131 148 160 186 168 155 170 213 181 224 265 289 295 294 273 252 240 225 221 225 228 227 229 231 235 239 239 240 240 242 241 243 245 245
221 237 200 188 194 190 172 149 134 162 169 164 213 207 179 199 195 182 182 243 276 287 306 301 268 246 239 232 238 236 232 229 230 232 237 238 235 235 237 236 242 243 243
214 211 185 186 191 180 167 143 144 201 181 254 309 151 207 256 172 166 172 169 299 309 306 286 303 268 261 242 244 236 232 229 225 227 231 233 233 235 238 238 243 244 243
208 181 176 188 200 181 172 147 161 216 168 269 276 314 251 276 221 181 168 164 166 235 271 266 279 283 264 242 246 218 226 237 235 233 227 229 233 239 241 242 245 245 243
199 183 187 182 182 204 158 141 171 214 107 300 273 319 308 289 296 252 190 188 176 186 230 251 247 263 260 266 255 233 237 249 243 238 238 238 236 240 241 244 245 243 241
190 193 190 177 175 201 198 174 208 197 208 289 304 289 290 278 281 284 261 241 217 190 229 269 257 271 266 275 262 241 246 243 243 239 237 242 243 242 239 240 243 240 239
188 184 171 179 204 215 211 199 220 223 221 250 269 279 292 308 301 273 262 261 250 222 207 257 278 283 265 262 255 256 256 248 236 240 238 246 249 247 245 245 243 240 237
194 190 170 179 209 225 224 221 216 220 218 231 242 243 270 295 295 280 268 267 264 267 227 229 264 266 275 284 290 283 274 273 259 251 244 248 253 254 254 252 246 242 238
195 204 208 213 215 224 225 216 209 217 231 243 234 227 241 231 243 257 267 262 256 262 262 252 268 278 277 290 282 277 293 285 278 274 263 256 257 260 262 257 252 246 241
212 217 218 227 230 229 230 220 224 222 229 247 249 246 243 233 239 247 260 250 236 235 247 255 267 279 283 295 270 253 265 283 279 262 275 279 274 275 271 265 255 250 246
224 226 224 225 235 249 254 228 213 231 232 234 244 255 257 265 274 278 275 258 230 224 230 231 245 243 256 251 253 255 250 267 288 271 215 278 265 268 267 251 255 251 250
219 239 245 234 241 258 255 236 220 222 235 238 238 245 260 271 265 273 289 295 281 259 229 217 225 238 240 237 235 258 245 230 241 243 195 270 268 265 266 260 261 257 253
221 233 246 239 241 261 256 241 228 226 240 249 242 232 233 252 261 253 262 283 281 276 259 238 224 237 240 235 221 225 232 244 265 270 188 239 267 264 276 265 264 257 252
223 238 246 242 241 268 267 242 218 224 244 259 258 246 230 241 259 254 243 264 284 287 281 259 243 241 242 240 222 197 235 230 273 273 223 194 249 270 282 279 271 257 250
217 231 255 250 240 256 263 250 218 218 240 260 269 264 249 249 260 253 233 240 262 274 286 297 292 283 267 252 237 213 208 217 240 264 242 194 229 226 287 282 271 265 258
Height
1526 1527 1527 1527 1527 1528 1528 1528 1528 1529 1529 1530 1531 1531 1531 1532 1533 1533 1532 1532 1532 1532 1532 1533 1533 1534 1534 1535 1535 1536 1536 1536 1537 1537 1537 1538 1538 1539 1539 1540 1541 1541 1542
1529 1529 1529 1529 1529 1529 1530 1530 1530 1530 1531 1531 1532 1532 1533 1533 1533 1533 1533 1533 1533 1533 1532 1533 1533 1533 1533 1534 1534 1534 1534 1535 1535 1535 1535 1536 1536 1536 1537 1538 1538 1539 1540
1531 1531 1531 1531 1531 1531 1531 1531 1531 1531 1531 1532 1532 1533 1533 1534 1533 1533 1533 1533 1532 1532 1532 1532 1533 1532 1532 1532 1532 1532 1533 1533 1533 1533 1533 1533 1533 1534 1534 1535 1536 1536 1537
1533 1533 1532 1532 1533 1533 1533 1533 1533 1533 1533 1533 1533 1533 1534 1534 1533 1533 1533 1533 1532 1532 1532 1532 1532 1532 1532 1531 1531 1531 1531 1531 1531 1531 1531 1531 1531 1531 1532 1532 1533 1533 1534
1534 1534 1534 1534 1534 1534 1534 1534 1534 1534 1533 1533 1533 1533 1533 1533 1533 1533 1533 1532 1532 1531 1531 1531 1531 1531 1531 1530 1530 1530 1530 1529 1529 1529 1529 1529 1529 1529 1529 1529 1530 1530 1531
1535 1535 1535 1535 1534 1534 1534 1534 1534 1534 1533 1533 1533 1533 1533 1533 1533 1532 1532 1532 1531 1531 1530 1530 1530 1530 1529 1529 1529 1529 1529 1528 1528 1528 1528 1528 1527 1527 1527 1527 1527 1528 1528
1536 1536 1536 1535 1535 1534 1534 1534 1534 1533 1533 1533 1533 1532 1532 1532 1532 1532 1531 1531 1530 1529 1529 1528 1528 1528 1528 1528 1528 1528 1527 1527 1526 1526 1526 1526 1525 1525 1525 1524 1525 1525 1526
1537 1537 1536 1536 1535 1535 1534 1534 1534 1533 1533 1533 1533 1532 1531 1532 1531 1531 1530 1530 1529 1529 1528 1528 1527 1527 1526 1526 1526 1526 1526 1525 1525 1525 1524 1524 1523 1523 1523 1523 1523 1523 1523
1537 1536 1536 1536 1535 1535 1534 1534 1533 1533 1533 1533 1533 1533 1532 1531 1530 1530 1530 1529 1529 1528 1527 1527 1526 1525 1525 1525 1524 1524 1524 1524 1523 1523 1522 1521 1521 1521 1521 1520 1521 1520 1520
1537 1536 1536 1535 1535 1534 1534 1533 1533 1533 1533 1532 1532 1532 1532 1531 1530 1530 1529 1528 1528 1527 1526 1526 1525 1524 1524 1523 1523 1523 1522 1522 1521 1520 1520 1519 1519 1518 1518 1518 1518 1518 1517
1536 1536 1535 1534 1534 1533 1533 1532 1532 1532 1532 1532 1531 1531 1530 1530 1529 1529 1528 1527 1527 1526 1525 1525 1524 1523 1523 1522 1521 1521 1520 1520 1519 1518 1517 1517 1516 1516 1516 1515 1515 1515 1515
1535 1534 1534 1534 1533 1533 1532 1532 1531 1531 1531 1530 1530 1530 1529 1528 1528 1527 1526 1525 1525 1525 1524 1523 1522 1522 1521 1520 1520 1519 1519 1518 1517 1516 1515 1514 1514 1513 1513 1512 1512 1512 1511
1533 1533 1533 1533 1532 1532 1531 1531 1530 1530 1530 1529 1529 1528 1528 1527 1527 1526 1525 1524 1523 1523 1522 1522 1521 1520 1519 1519 1518 1517 1516 1516 1515 1514 1513 1512 1511 1510 1510 1510 1509 1509 1508
1533 1533 1533 1532 1531 1531 1530 1530 1529 1529 1528 1528 1527 1527 1526 1526 1525 1524 1523 1523 1522 1521 1520 1520 1519 1518 1518 1517 1516 1515 1514 1513 1513 1512 1511 1510 1509 1508 1507 1507 1506 1506 1506
1532 1532 1532 1531 1531 1530 1529 1529 1528 1527 1527 1526 1526 1525 1524 1524 1523 1522 1522 1521 1521 1519 1518 1517 1517 1516 1515 1514 1514 1513 1512 1511 1510 1510 1509 1508 1506 1506 1505 1504 1503 1503 1502
1531 1531 1530 1530 1530 1529 1528 1527 1526 1526 1525 1525 1524 1523 1522 1521 1521 1520 1520 1519 1519 1518 1516 1515 1514 1514 1513 1512 1511 1510 1509 1508 1508 1507 1506 1505 1504 1503 1502 1501 1501 1500 1499
1529 1529 1529 1528 1528 1527 1527 1526 1525 1524 1524 1523 1522 1521 1520 1520 1519 1518 1518 1517 1516 1516 1514 1512 1512 1511 1511 1510 1509 1508 1507 1506 1505 1504 1503 1502 1501 1500 1499 1498 1497 1497 1496
1528 1527 1527 1526 1526 1525 1525 1524 1523 1523 1522 1521 1520 1519 1518 1517 1517 1516 1515 1514 1514 1513 1512 1509 1509 1508 1508 1507 1506 1505 1504 1504 1503 1501 1500 1499 1498 1497 1496 1495 1494 1493 1492
1526 1525 1525 1524 1524 1523 1523 1522 1521 1521 1520 1519 1518 1517 1516 1515 1514 1514 1513 1512 1511 1510 1509 1507 1506 1505 1504 1504 1503 1502 1501 1500 1500 1498 1497 1496 1495 1494 1492 1491 1490 1490 1489
1523 1523 1523 1522 1521 1521 1520 1520 1519 1518 1517 1516 1516 1515 1514 1513 1512 1511 1510 1509 1508 1507 1506 1504 1503 1502 1501 1501 1500 1499 1498 1497 1496 1495 1494 1493 1492 1490 1489 1488 1487 1486 1485
1521 1520 1520 1519 1518 1518 1517 1517 1516 1515 1514 1513 1513 1512 1511 1510 1509 1508 1507 1506 1505 1504 1503 1502 1500 1499 1498 1498 1497 1496 1495 1494 1493 1492 1491 1490 1488 1487 1486 1484 1483 1483 1482
1518 1518 1517 1516 1515 1515 1514 1514 1513 1512 1511 1510 1510 1509 1508 1507 1506 1505 1504 1503 1502 1501 1500 1499 1497 1497 1496 1495 1494 1493 1492 1491 1490 1490 1488 1486 1485 1484 1482 1481 1480 1479 1478
1515 1514 1514 1513 1512 1512 1511 1510 1510 1509 1508 1507 1506 1506 1505 1504 1503 1502 1501 1500 1499 1498 1497 1496 1494 1493 1493 1492 1491 1490 1490 1488 1487 1486 1485 1483 1482 1481 1480 1478 1477 1476 1475
1512 1511 1510 1509 1509 1508 1508 1507 1506 1506 1505 1504 1503 1503 1502 1501 1500 1499 1497 1496 1495 1494 1493 1492 1491 1491 1490 1489 1489 1488 1487 1486 1484 1484 1483 1481 1479 1478 1477 1475 1474 1473 1472
1509 1508 1507 1506 1505 1504 1504 1503 1503 1502 1501 1500 1500 1499 1498 1497 1496 1495 1494 1492 1491 1490 1490 1489 1489 1488 1487 1487 1486 1485 1484 1482 1480 1480 1480 1478 1476 1474 1473 1472 1471 1470 1469
1505 1505 1504 1503 1502 1501 1500 1500 1499 1498 1497 1496 1496 1495 1494 1494 1493 1491 1490 1489 1487 1487 1487 1486 1485 1484 1484 1483 1483 1482 1481 1479 1478 1476 1476 1475 1473 1472 1470 1469 1468 1468 1466